Regional Weather Roundup
Issued by NWS Cleveland, OH

Home | Current Version | Previous Version | Text Only | Print | Product List | Glossary On
Versions: 1 2 3 4 5 6 7 8 9 10 11 12 13 14 15 16 17 18 19 20 21 22 23 24 25 26 27 28 29 30 31 32 33 34 35 36 37 38 39 40 41 42 43 44 45 46 47 48 49 50
000
ASUS41 KCLE 260012
RWRCLE
OHIO REGIONAL WEATHER ROUNDUP
NATIONAL WEATHER SERVICE WILMINGTON, OH
800 PM EDT MON JUL 25 2016

NOTE: "FAIR" INDICATES FEW OR NO CLOUDS BELOW 12,000 FEET WITH NO
SIGNIFICANT WEATHER AND/OR OBSTRUCTIONS TO VISIBILITY.

OHZ001>008-015>018-024>027-034-035-043-044-260100-
   NORTHWEST OHIO

CITY           SKY/WX    TMP DP  RH WIND       PRES   REMARKS
DEFIANCE       FAIR      85  65  51 NW6       29.95S
FINDLAY        FAIR      86  66  51 W6        29.94R
TOLEDO EXPRESS FAIR      84  68  58 W9        29.94R
TOLEDO EXEC    FAIR      86  67  52 W13       29.94R
LIMA           FAIR      81  72  74 W8        29.97R
$$

OHZ009>014-019>023-028>033-038-089-260100-
   NORTHEAST OHIO

CITY           SKY/WX    TMP DP  RH WIND       PRES   REMARKS
CLE-HOPKINS    FAIR      86  64  47 W13       29.95R
CLE-LAKEFRONT  FAIR      82  73  74 W9        29.91R
CUY CO. ARPT   PTCLDY    86  72  62 W10G20    29.94R HX  92
LORAIN-ELYRIA  FAIR      83  68  60 NW8       29.94R
ASHTABULA      FAIR      80  69  69 W5        29.94R
AKRON-CANTON   MOCLDY    85  67  54 W7        29.96R
WOOSTER        FAIR      83  64  52 W8        29.97R
MANSFIELD      FAIR      84  67  56 W6        29.98R
YOUNGSTOWN     MOCLDY    84  69  60 N8        29.95R
$$

OHZ042-051>053-060>062-070>072-077>081-260100-
  SOUTHWEST OHIO

CITY           SKY/WX    TMP DP  RH WIND       PRES   REMARKS
CINC-COVINGTON CLOUDY    84  76  76 SW3       29.99R HX  93
CINC-LUNKEN    FAIR      83  77  82 S6        29.97R HX  92
HAMILTON       FAIR      87  69  54 NW8       29.98R HX  91
DAYTON         MOCLDY    85  71  63 W8        29.99R HX  90
WRIGHT-PAT AFB FAIR      86  70  59 W7        29.97R HX  91
DAYTON GENERAL FAIR      85  68  56 W8        29.98R
WILMINGTON     FAIR      87  68  52 NW7       29.98R HX  90
$$

OHZ036-037-039>041-045>050-054>059-063>069-073>076-082>088-260100-
  CENTRAL AND SOUTHEAST OHIO

CITY           SKY/WX    TMP DP  RH WIND       PRES   REMARKS
COLUMBUS       MOCLDY    87  67  51 NW7       29.95R HX  90
OSU AIRPORT    FAIR      86  70  58 CALM      29.96R HX  90
BOLTON FIELD   FAIR      86  69  56 CALM      29.97R HX  90
RICKENBACK AFB FAIR      86  66  50 W7        29.95R
NEWARK         FAIR      84  68  58 CALM      29.96R
MARION         FAIR      84  66  54 W5        29.97R
LANCASTER      FAIR      83  71  67 W6        29.96R
ZANESVILLE     FAIR      89  68  49 NW10      29.96R HX  93
NEW PHILLY     FAIR      91  61  36 NW7       29.95R HX  91
$$




USA.gov is the U.S. government's official web portal to all federal, state and local government web resources and services.